Regional Weather Roundup
Issued by NWS Sterling, VA

Home | Current Version | Previous Version | Text Only | Print | Product List | Glossary On
Versions: 1 2 3 4 5 6 7 8 9 10 11 12 13 14 15 16 17 18 19 20 21 22 23 24 25 26 27 28 29 30 31 32 33 34 35 36 37 38 39 40 41 42 43 44 45 46 47
000
ASUS41 KLWX 310110
RWRLWX

REGIONAL WEATHER ROUNDUP
NATIONAL WEATHER SERVICE BALTIMORE MD/WASHINGTON DC
900 PM EDT THU JUL 30 2015

Note: "FAIR" indicates few or no clouds below 12,000 feet
with no significant weather and/or obstructions to visibility.
 TC=TEMPERATURE CELSIUS

 * =Non NWS site. Station does not report precipitation (e.g. rain,
    snow, etc.), thunder, or fog.

DCZ001-MDZ009-015-VAZ040>042-051-053>054-310200-
WASHINGTON METRO

CITY           SKY/WX    TMP DP  RH WIND       PRES   REMARKS
WASHINGTON NAT CLOUDY    83  74  74 SW7       29.88R
DULLES         MOCLDY    78  75  90 SW3       29.89R
ANDREWS AFB    CLOUDY    78  74  89 SW7       29.88R
FT BELVOIR     CLOUDY    78  75  91 CALM      29.88R
QUANTICO       MOCLDY    79  74  84 W3        29.84S
COLLEGE PARK*  CLOUDY    79  73  83 CALM      29.88R
LEESBURG*      PTCLDY    81  68  65 W8        29.90S
MANASSAS*      CLEAR     79  77  94 CALM      29.90R
GAITHERSBURG*  PTCLDY    81  73  78 CALM      29.93R

$$

MDZ006>007-011-014-310200-
BALTIMORE METRO

CITY           SKY/WX    TMP DP  RH WIND       PRES   REMARKS
BWI AIRPORT    MOCLDY    80  75  84 SW5       29.87R
MD SCIENCE CTR   N/A     82  76  81 MISG      29.87R
MARTIN STATE   CLEAR     81  79  94 S5        29.87S
ANNAPOLIS      MOCLDY    79  74  84 CALM      29.87R
FORT MEADE*    MOCLDY    77  73  88 CALM      29.90R

$$

MDZ012-015-019>023-310200-
MARYLAND EASTERN SHORE

CITY           SKY/WX    TMP DP  RH WIND       PRES   REMARKS
OCEAN CITY     LGT RAIN  79  76  90 W5        29.88R
SALISBURY      CLOUDY    76  75  97 W5        29.88R
BAY BRIDGE AP*   N/A     79  73  83 SW3       29.87S
CAMBRIDGE*     MOCLDY    77  73  88 CALM      29.87S
EASTON*        MOCLDY    79  79 100 SW7       29.91R

$$

MDZ017>025-310200-
SOUTHERN MARYLAND

CITY           SKY/WX    TMP DP  RH WIND       PRES   REMARKS
PATUXENT RIVER CLOUDY    76  74  93 CALM      29.87S
ST INIGOES     MOCLDY    77  75  93 CALM      29.87R FOG
LEONARDTOWN*   MOCLDY    73  72  94 CALM      29.90R

$$

MDZ003>005-310200-
NORTH CENTRAL MARYLAND

CITY           SKY/WX    TMP DP  RH WIND       PRES   REMARKS
FREDERICK*     PTCLDY    73  72  94 CALM      29.92R
HAGERSTOWN APT CLEAR     80  58  46 W3        29.90R
WESTMINSTER*   PTCLDY    81  66  61 W5        29.91R

$$

MDZ501>502-310200-
WESTERN MARYLAND

CITY           SKY/WX    TMP DP  RH WIND       PRES   REMARKS
OAKLAND*       CLEAR     68  61  77 W6        30.07R
CUMBERLAND*    CLEAR     82  54  36 W8        29.98R

$$

VAZ025>031-310200-
SHENANDOAH VALLEY

CITY           SKY/WX    TMP DP  RH WIND       PRES   REMARKS
WINCHESTER*    PTCLDY    77  61  57 NW5       29.93R
FRONT ROYAL*   FAIR      77  64  65 CALM      29.91S
LURAY*         FAIR      82  61  47 N8        29.94R
NEW MARKET*    FAIR      78  59  51 N7        29.93R
STAUNTON*      PTCLDY    82  61  49 NW6       29.97R
WAYNESBORO*    FAIR      78  69  75 NW3       29.97R

$$

WVZ021-048>050-054>055-310200-
EASTERN WEST VIRGINIA PANHANDLE

CITY           SKY/WX    TMP DP  RH WIND       PRES   REMARKS
MARTINSBURG    PTCLDY    81  57  43 W9        29.91R
PETERSBURG*    CLEAR    N/A N/A N/A CALM      29.98R

$$

VAZ036>039-050-310200-
CENTRAL FOOTHILLS

CITY           SKY/WX    TMP DP  RH WIND       PRES   REMARKS
CHARLOTTESVILL PTCLDY    76  73  91 CALM      29.91S
CULPEPER*      MOCLDY    75  74  98 CALM      29.91R FOG
ORANGE*        MOCLDY    79  77  94 CALM      29.92R
GORDONSVILLE*  FAIR      75  72  88 NW3       29.90R
WARRENTON*     FAIR      77  76  98 CALM      29.89S FOG

$$

VAZ055>057-310200-
NORTH AND CENTRAL PIEDMONT

CITY           SKY/WX    TMP DP  RH WIND       PRES   REMARKS
FREDERICKSBRG* CLOUDY    80  80 100 E5        29.88R
STAFFORD*      CLOUDY    76  74  93 SE3       29.93R

$$

NCZ024-NYZ072-PAZ021-071-VAZ022-071-310200-
OTHER REGIONAL OBSERVATIONS

CITY           SKY/WX    TMP DP  RH WIND       PRES   REMARKS
NEW YORK CITY  PTCLDY    77  72  84 VRB5      29.85R
PHILADELPHIA   MOCLDY    79  73  82 SW8       29.86R
PITTSBURGH     PTCLDY    78  56  46 W6        29.98R
ROANOKE        PTCLDY    80  60  50 NW13      29.99R
RICHMOND       MOCLDY    82  76  81 E3        29.87S
RALEIGH        MOCLDY    84  75  74 CALM      29.89R HX  92

$$

ANZ530>537-310200-
MARINE OBSERVATIONS

STATION/POSITION TIME  TEMP    WIND        PRES
                       AIR SEA DIR/SP/G
                 (UTC) (F)     (DEG/KT/KT) (MB)
THOMAS PT LIGHT  0000      81  220/  9/ 10 1011.8R
BALT KEY BRIDGE  0000   81     190/  5/  7 1010.8R
COVE POINT       0000   76     220/  4/  5 1012.2R
LEWISETTA        0000   77 85  190/  6/  7 1011.1F
SOLOMONS ISLAND  0000      82                N/A
PINEY POINT      0000          160/  5/  6   N/A

$$




USA.gov is the U.S. government's official web portal to all federal, state and local government web resources and services.